ATLAS 5 CENTAUR DEB, 44980

Orbit data source: Space-Track

ATLAS 5 CENTAUR DEB, 44980 is space debris in HEO originally from a launch on Wed, 17 Oct 2018 UTC launched from the Air Force Eastern Test Range (AFETR). Debris objects in space refer to the collection of defunct objects orbiting the Earth. Examples of debris include non-operational satellites, rocket bodies, and fragments generated from explosions, collisions, or faulty payload assembly.

Loading next visibility...
Identifier
44980, 2018-079BP
Orbit
HEO
Country
Flag of USUS
Related business
Flag of USUnited Launch Alliance/Lockheed Martin (US)
Manufacturer
ULA Decatur
Mission
Spacecraft
Bus & Motor
Unknown
Mass
Unknown
Launch date (UTC)
2018-10-17 (7 years ago)
Launch vehicle
Unknown
Launch site
Air Force Eastern Test Range (AFETR)
Object type
Payload
Rocket body
Debris
Shape & HBR
Unknown
Radar Cross Section
RCS unknown

Expand to show TLE details & history
Last TLE update: 2 days ago

TLE from 2 days ago
0 ATLAS 5 CENTAUR DEB
1 44980U 18079BP  25259.06627794 -.00000085  00000-0  00000-0 0  9998
2 44980  13.0977 339.3242 4501853  79.6246 326.5336  2.15773565 45930
Epoch: 2025-09-16T01:35Z
TLE epoch observation values (Epoch: 2025-09-16T01:35:26.414Z)
Latitude
0.00003°
Longitude
-39.77867°
Altitude
12,282.589 km
Speed
5.193 km/s
True Right ascension
22h 37m 22s
True Declination
0° 00' 00"
Sunlit
Object was in full shadow at epoch
Visualization orbit readout
Latitude
Unknown
Longitude
Unknown
Altitude
Unknown
Speed
Unknown
Apparent Right ascension
Unknown
Apparent Declination
Unknown
Sunlit
N/A
Visualization observer readout
Local Sidereal Time
03:39:16
Azimuth
Unknown
Elevation
Unknown
Doppler factor
Unknown
Orbital elements
Apogee altitude
30,310.552 km
Perigee altitude
7,531.796 km
Semi-major axis
25,299.311 km
Eccentricity
0.45019
Inclination
13.0977°
RAAN
339.3242°
Arg. of periapsis
79.6246°
True anomaly
280.23504°
Mean anomaly
326.5336°
Eccentric anomaly
305.54677°
Mean motion
0.53936 °/min
Orbital period
667.46 mins
BSTAR
0
Loading maneuver chart data...
Computing Atmospheric mass density...

Documentation

Showing up to 5 results
|